User: anonymous   Login
Location: Bazugues
(43.4465°N, 0.3432°E)
Time: 12:22:28
(UTC+00:00)
Language:

NOSS 3-4 (C) - Orbit

View from above orbital plane
View from above orbital plane
View from above satellite
View from above satellite

Ground track
Ground track

The orbit is defined by the following mean orbital elements,

1 31708U 07027C   25360.20098909 0.00000000  00000-0  00000-0 0    01
2 31708  63.3825  49.2287 0443904  22.9460 337.0540 13.40986015    06
Epoch (UTC): 26 December 2025 04:49:25
Eccentricity: 0.0443904
inclination: 63.3825°
perigee height: 773 km
apogee height: 1438 km
right ascension of ascending node: 49.2287°
argument of perigee: 22.9460°
revolutions per day: 13.40986015
mean anomaly at epoch: 337.0540°

The dashed part of the orbit path shows where the satellite is in the earth's shadow,  

DLR